Find Starlink 32491

NORAD ID: 62043 Int'l Des: 2024-216 Owner: SPXS Country: US Constellation: starlink operational
LEOCIRCULAR

Current View

Loading 3D Globe...

About Starlink 32491

Starlink 32491 (NORAD 62043) is a starlink constellation satellite (v2 mini) launched Nov 21, 2024 by SPXS of US. It operates in LEO, CIRCULAR orbit with a mass of 730.00 kg.

About Starlink 32491

Description loading...

Upcoming Passes

Passes for default location (London). Set your location on the main map for personalized predictions.

Altitude History

Loading altitude history...

Two-Line Element Set

1 62043U 24216M 26173.33745377 .00021945 00000-0 80475-3 0 9996
2 62043 43.0052 32.8094 0000947 278.6919 81.3826 15.27574835 89797
Epoch: Jun 22, 2026 • Age: 29 hours

Current Status

Altitude 490.9 km
Velocity 7.62 km/s
Sub-Earth Point -30.71°S, 133.4°E
Launch Date Nov 21, 2024
Age 1.5 years
Type internet

Technical Details

Classification Payload
Mass 730.00 kg
Dry Mass 700.00 kg
Total Mass 730.00 kg
Length 0.30 m
Diameter 4.10 m
Span 29.00 m
Shape Box + pan
Manufacturer SPXS
Bus Type Starlink V2M
Phase Status In Orbit
Owner/State SPXS/US

Most Searched